Location: Austin
(30.3000°N, 97.7500°W)
Time: 04:28:23
(UTC-06:00)

Meteor 2-21 Rocket - Pass Details

Date: 05 February 2026
Orbit: 936 x 967 km, 82.5° (Epoch: 15 February)

Event Time Altitude Azimuth Distance (km) Brightness Sun altitude
Rises 06:08:28 0° 351° (N) 3,638 7.3 -15.6°
Reaches altitude 10° 06:10:59 10° 350° (N) 2,684 6.6 -15.1°
Maximum altitude 06:17:06 75° 266° (W) 979 4.4 -13.8°
Drops below altitude 10° 06:23:08 10° 182° (S) 2,650 6.9 -12.5°
Sets 06:25:36 0° 180° (S) 3,587 7.6 -12.0°
